Location: Corcelles
(46.1547°N, 4.7234°E)
Time: 00:31:44
(UTC+00:00)

Cosmos 1763 Rocket - Visible Passes

Search period start: 24 October 2020 00:00
Search period end: 03 November 2020 00:00
Orbit: 733 x 779 km, 74.0° (Epoch: 23 October)

Date Brightness Start Highest point End Pass type
(mag) Time Alt. Az. Time Alt. Az. Time Alt. Az.
25 Oct 6.1 05:23:44 10° NNE 05:26:14 14° NE 05:28:44 10° ENE visible
28 Oct 6.0 05:03:23 10° N 05:06:40 17° NE 05:09:55 10° E visible
29 Oct 6.3 04:24:38 10° NNE 04:25:35 10° NE 04:26:33 10° NE visible
30 Oct 5.1 05:23:16 10° N 05:27:53 34° ENE 05:32:28 10° SE visible
31 Oct 5.8 04:43:13 10° N 04:47:02 21° NE 04:50:51 10° ESE visible
01 Nov 6.2 04:03:40 10° NNE 04:06:03 13° NE 04:08:27 10° ENE visible
01 Nov 3.7 05:43:42 10° NNW 05:48:48 76° ENE 05:53:51 10° SSE visible
02 Nov 4.6 05:03:19 10° N 05:08:09 43° ENE 05:12:59 10° SE visible
